Location: ??????
(56.0120°N, 39.1740°E)
Time: 14:56:57
(UTC+00:00)

ATLAS 2AS CENTAUR R/B - Pass Details

Date: 14 April 2026
Orbit: 1052 x 1158 km, 63.7° (Epoch: 17 May)

Event Time Altitude Azimuth Distance (km) Brightness Sun altitude
Exits shadow 22:08:26 30° 141° (SE) 1,826 3.6 -23.7°
Maximum altitude 22:09:51 33° 119° (ESE) 1,735 3.6 -23.6°
Drops below altitude 10° 22:15:46 10° 59° (ENE) 2,894 5.5 -23.4°
Sets 22:18:39 0° 50° (NE) 3,844 6.5 -23.3°
